Portada
METAR-TAF:

METAR-TAF

Aeroports :

Tanegashima, Japó

latitud: 30-33N, longitud: 130-57E, altitud: 92 m

Observació

L'informe es va fer fa 28 minuts, a les 06:00 UTC
Vent 5 kt del Est/Nord-Est, variant entre Nord/Nord-Est i Est/Sud-Est
Temperatura 13°C
Humitat 54%
Pressió 1025 hPa
Visibilitat 10 km o més
Escasses núvols a una alçada de 3000 ft

METAR: RJFG 210600Z 07005KT 030V120 9999 FEW030 13/04 Q1025

Hora: 15:28 (06:28 UTC)


TAF: manca

Observacions i pronòstics meteorològics de més de 4000 aeroports (METAR i TAF).

Les estacions disponibles són els punts grocs i vermells al mapa.

Posi el ratolí al punt desitjat per veure el nom de l'estació.

Feu clic per veure les observacions i els pronòstics meteorològics.

Per canviar el mapa: feu clic els botons verds amb una creu de color negre per apropar; al botó verd amb un guió per allunyar la imatge; o en les fletxes verdes per a mapes adjacents.


METAR-TAF: